Voltar ao catálogo

STARLINK-36035

AtivoComunicaçõesVLEO
NORAD 67082·PAYLOAD·🇺🇸 United States

Lançado Dec 14, 2025 de Vandenberg Space Force Base

Loading…

Próximas Passagens (próximas 24 horas)

TLE

AtualizadoSource: CelesTrak SupGP

Época: Sep 15, 2026, 03:28 UTC

1 67082C 25298H   26258.14493056 -.00044429  00000+0 -37228-2 0  2580
2 67082  69.9993 256.6988 0003869 267.2046 243.0005 14.98356372    10

Acompanhe STARLINK-36035 em tempo real com AllMySat

Download on the App Store